Weather History for KFXE - May, 2013

Change the Weather History Date:

Saturday, May 4, 2013

  Actual Average Record
Temperature  
Mean Temperature 77 °F -  
Max Temperature 88 °F 85 °F 92 °F (1951)
Min Temperature 66 °F 69 °F 56 °F (1971)
Cooling Degree Days 12    
Growing Degree Days 27 (Base 50)    
Moisture  
Dew Point 66 °F    
Average Humidity 73    
Maximum Humidity 100    
Minimum Humidity 45    
Precipitation  
Precipitation 0.00 in - - ()
Sea Level Pressure  
Sea Level Pressure 29.75 in    
Wind  
Wind Speed 7 mph (West)    
Max Wind Speed 14 mph    
Max Gust Speed 21 mph    
Visibility 10 miles    
Events      
Averages and records for this station are not official NWS values.
T = Trace of Precipitation, MM = Missing Value Source: NWS Daily Summary

Daily Weather History Graph

Daily Weather History Graph

Search for Another Location

Airport or City:

Trip Planner

Search our weather history database for the weather conditions in past years. The results will help you decide how hot, cold, wet, or windy it might be!

Date:

Astronomy

May. 04, 2013 Rise Set
Actual Time 6:40 AM EDT 7:54 PM EDT
Civil Twilight 6:16 AM EDT 8:18 PM EDT
Nautical Twilight 5:47 AM EDT 8:47 PM EDT
Astronomical Twilight 5:17 AM EDT 9:18 PM EDT
Moon 3:08 AM EDT 3:17 PM EDT
Length of Visible Light 14h 02m
Length of Day
13h 13m
Waning Crescent, 27% of the Moon is Illuminated
May 4
Waning Crescent
May 9
New
May 18
First Quarter
May 25
Full
May 31
Last Quarter

Hourly Weather History & Observations

Time (EDT) Temp. Heat Index Dew Point Humidity Pressure Visibility Wind Dir Wind Speed Gust Speed Precip Events Conditions
12:53 AM 72.0 °F - 69.1 °F 91% 29.75 in 10.0 mi Calm Calm - N/A   Clear
1:53 AM 72.0 °F - 69.1 °F 91% 29.73 in 10.0 mi WNW 4.6 mph - N/A   Clear
2:53 AM 69.1 °F - 69.1 °F 100% 29.71 in 10.0 mi West 6.9 mph - N/A   Clear
3:53 AM 68.0 °F - 68.0 °F 100% 29.71 in 10.0 mi West 8.1 mph - N/A   Clear
4:53 AM 66.9 °F - 66.9 °F 100% 29.72 in 10.0 mi West 3.5 mph - N/A   Clear
5:53 AM 66.9 °F - 66.9 °F 100% 29.72 in 10.0 mi WNW 3.5 mph - N/A   Clear
6:53 AM 66.0 °F - 66.0 °F 100% 29.75 in 10.0 mi West 3.5 mph - N/A   Partly Cloudy
7:53 AM 68.0 °F - 68.0 °F 100% 29.76 in 10.0 mi West 5.8 mph - N/A   Partly Cloudy
8:53 AM 72.0 °F - 68.0 °F 87% 29.76 in 10.0 mi West 6.9 mph - N/A   Scattered Clouds
9:53 AM 75.9 °F - 66.9 °F 74% 29.77 in 10.0 mi WNW 10.4 mph - N/A   Scattered Clouds
10:53 AM 77.0 °F - 66.0 °F 69% 29.78 in 10.0 mi WNW 9.2 mph - N/A   Scattered Clouds
11:53 AM 81.0 °F 82.7 °F 64.9 °F 58% 29.78 in 10.0 mi NW 9.2 mph 17.3 mph N/A   Mostly Cloudy
12:53 PM 81.0 °F 82.7 °F 64.9 °F 58% 29.76 in 10.0 mi West 12.7 mph - N/A   Mostly Cloudy
1:53 PM 82.9 °F 84.4 °F 64.0 °F 53% 29.75 in 10.0 mi WSW 9.2 mph 20.7 mph N/A   Mostly Cloudy
2:53 PM 84.9 °F 86.1 °F 64.0 °F 49% 29.72 in 10.0 mi WSW 8.1 mph - N/A   Mostly Cloudy
3:53 PM 84.9 °F 85.9 °F 63.0 °F 48% 29.71 in 10.0 mi West 13.8 mph - N/A   Mostly Cloudy
4:53 PM 88.0 °F 89.3 °F 64.0 °F 45% 29.71 in 10.0 mi WNW 9.2 mph - N/A   Scattered Clouds
5:53 PM 86.0 °F 87.3 °F 64.0 °F 48% 29.72 in 10.0 mi West 12.7 mph 20.7 mph N/A   Partly Cloudy
6:53 PM 82.9 °F 84.0 °F 63.0 °F 51% 29.73 in 10.0 mi WNW 13.8 mph - N/A   Scattered Clouds
7:53 PM 81.0 °F 81.9 °F 62.1 °F 52% 29.75 in 10.0 mi West 10.4 mph - N/A   Partly Cloudy
8:53 PM 78.1 °F - 64.0 °F 62% 29.77 in 10.0 mi West 10.4 mph - N/A   Clear
9:53 PM 75.0 °F - 64.0 °F 69% 29.80 in 10.0 mi West 9.2 mph - N/A   Clear
10:53 PM 73.9 °F - 64.0 °F 71% 29.82 in 10.0 mi West 11.5 mph - N/A   Clear
11:53 PM 73.0 °F - 64.0 °F 73% 29.83 in 10.0 mi West 12.7 mph - N/A   Partly Cloudy